EW5826 Weather Reports


time (UTC)temp
C
wind
direction
speed
KPH
gust
KPH
rain 1hr
cm
rain 24hr
cm
rain mn
cm
humidity
%
barometer
mb
20260508194019 13 68 1.6 4.8 0.00 0.38 0.33 86 1010.8
20260508193020 13 0 3.2 4.8 0.00 0.38 0.33 86 1011.0
20260508192020 13 0.0 3.2 0.00 0.38 0.33 87 1011.3
20260508191020 13 68 1.6 4.8 0.00 0.38 0.33 86 1011.7
20260508190020 13 0.0 3.2 0.00 0.38 0.33 87 1011.8
20260508185040 13 0.0 3.2 0.00 0.38 0.33 86 1012.0
20260508184020 13 293 1.6 3.2 0.00 0.38 0.33 86 1012.3
20260508183020 13 315 1.6 4.8 0.00 0.38 0.33 88 1012.3
20260508182020 12 293 1.6 4.8 0.00 0.38 0.33 87 1012.5
20260508181020 12 0.0 3.2 0.00 0.38 0.33 87 1012.6
20260508180020 12 293 3.2 9.7 0.00 0.38 0.33 86 1012.7
20260508175038 12 293 4.8 14.5 0.03 0.38 0.33 83 1013.1
20260508174020 13 270 6.4 16.1 0.03 0.38 0.33 82 1012.8
20260508173019 13 270 4.8 11.3 0.05 0.38 0.33 83 1012.6
20260508172018 12 180 4.8 9.7 0.10 0.38 0.33 87 1012.6
20260508171018 11 203 6.4 14.5 0.13 0.38 0.33 89 1012.9
20260508170018 11 203 4.8 11.3 0.13 0.38 0.33 92 1013.3
20260508165018 10 203 3.2 11.3 0.13 0.36 0.30 91 1013.5
20260508164018 10 225 4.8 12.9 0.13 0.36 0.30 91 1013.7
20260508163018 10 203 4.8 11.3 0.10 0.33 0.28 90 1013.8
20260508162018 10 270 4.8 16.1 0.05 0.28 0.23 89 1014.1
20260508161018 11 270 4.8 14.5 0.03 0.25 0.20 88 1014.3
20260508160018 11 293 4.8 14.5 0.03 0.25 0.20 87 1014.4
20260508155018 11 293 4.8 14.5 0.00 0.23 0.18 85 1014.4
20260508154018 11 270 4.8 9.7 0.00 0.23 0.18 83 1014.5
20260508153019 11 270 8.0 16.1 0.00 0.23 0.18 82 1014.4
20260508152018 11 270 4.8 11.3 0.00 0.23 0.18 81 1014.3
20260508151018 11 270 4.8 14.5 0.00 0.23 0.18 81 1014.1
20260508150018 11 293 3.2 9.7 0.00 0.23 0.18 80 1013.9
20260508145018 11 293 6.4 16.1 0.00 0.23 0.18 79 1014.1
20260508144018 12 293 4.8 11.3 0.00 0.23 0.18 77 1014.1
20260508143018 12 270 8.0 19.3 0.00 0.23 0.18 75 1014.0
20260508142020 12 270 8.0 14.5 0.00 0.23 0.18 74 1013.8
20260508141018 12 315 4.8 16.1 0.00 0.23 0.18 75 1013.8
20260508140018 12 315 6.4 14.5 0.00 0.23 0.18 74 1014.0
20260508135018 11 270 11.3 20.9 0.00 0.23 0.18 73 1014.1
20260508134020 11 270 8.0 19.3 0.00 0.23 0.18 73 1014.0
20260508133018 11 270 8.0 20.9 0.00 0.23 0.18 74 1014.2
20260508132038 11 270 8.0 16.1 0.00 0.23 0.18 74 1014.1
20260508131018 11 270 9.7 19.3 0.00 0.23 0.18 74 1014.1
20260508130018 11 248 8.0 19.3 0.00 0.23 0.18 75 1014.0
20260508125040 11 270 6.4 17.7 0.00 0.23 0.18 77 1014.2
20260508124040 11 270 6.4 16.1 0.00 0.23 0.18 77 1014.0
20260508123018 10 293 4.8 14.5 0.00 0.23 0.18 78 1014.0
20260508122020 10 315 4.8 16.1 0.00 0.23 0.18 78 1014.0
20260508121019 10 270 4.8 14.5 0.00 0.23 0.18 78 1014.0
20260508120019 10 270 4.8 11.3 0.00 0.23 0.18 78 1013.9
20260508115019 9 293 4.8 12.9 0.00 0.23 0.18 79 1013.9
20260508114018 9 293 3.2 11.3 0.00 0.23 0.18 79 1013.8
20260508113039 9 293 3.2 12.9 0.00 0.23 0.18 80 1013.6
20260508112059 8 270 4.8 16.1 0.00 0.23 0.18 80 1013.6
20260508111018 8 293 3.2 11.3 0.00 0.23 0.18 81 1013.5
20260508110019 8 248 4.8 11.3 0.00 0.23 0.18 81 1013.3
20260508105019 8 248 3.2 12.9 0.00 0.23 0.18 81 1013.4
20260508104018 8 270 3.2 14.5 0.00 0.23 0.18 81 1013.3
20260508103018 8 248 4.8 12.9 0.00 0.23 0.18 81 1013.2
20260508102019 8 248 4.8 11.3 0.00 0.23 0.18 81 1013.3
20260508101058 8 315 3.2 12.9 0.00 0.23 0.18 82 1013.3
20260508100019 8 293 6.4 17.7 0.00 0.23 0.18 83 1013.3
20260508095019 7 270 4.8 14.5 0.00 0.23 0.18 85 1013.3
20260508094018 7 293 6.4 17.7 0.00 0.23 0.18 86 1013.3
20260508093018 7 270 4.8 16.1 0.00 0.23 0.18 88 1013.3
20260508092019 7 248 3.2 14.5 0.00 0.23 0.18 88 1013.3
20260508091018 7 225 3.2 8.0 0.00 0.23 0.18 89 1013.3
20260508090018 7 248 3.2 11.3 0.03 0.23 0.18 90 1013.3
20260508085018 7 203 4.8 12.9 0.03 0.23 0.18 91 1013.4
20260508084018 7 203 4.8 9.7 0.03 0.23 0.18 91 1013.4
20260508083018 7 203 3.2 9.7 0.03 0.23 0.18 92 1013.4
20260508082019 7 180 3.2 9.7 0.03 0.23 0.18 92 1013.4
20260508081018 7 180 3.2 6.4 0.03 0.23 0.18 93 1013.5
20260508080018 7 158 1.6 6.4 0.00 0.20 0.15 93 1013.6
20260508075018 7 158 1.6 4.8 0.00 0.20 0.15 93 1013.6
20260508074018 7 158 3.2 6.4 0.00 0.20 0.15 93 1013.6
20260508073038 7 180 1.6 4.8 0.00 0.20 0.15 93 1013.8
20260508072018 7 180 1.6 4.8 0.00 0.20 0.15 93 1013.9
20260508071018 7 180 1.6 4.8 0.00 0.20 0.15 93 1013.9
20260508070018 7 158 3.2 8.0 0.00 0.20 0.15 93 1014.0
20260508065018 7 158 4.8 8.0 0.00 0.20 0.15 92 1014.1
20260508064018 7 158 3.2 8.0 0.00 0.20 0.15 92 1014.1
20260508063020 7 158 3.2 6.4 0.00 0.20 0.15 92 1014.3
20260508062038 7 158 3.2 6.4 0.03 0.20 0.15 92 1014.3
20260508061019 8 180 4.8 8.0 0.05 0.20 0.15 92 1014.4
20260508060018 8 158 1.6 4.8 0.08 0.20 0.15 92 1014.7
20260508055058 8 158 3.2 8.0 0.08 0.20 0.15 92 1014.6
20260508054020 8 338 1.6 6.4 0.08 0.20 0.15 92 1015.1
20260508053038 8 158 1.6 3.2 0.08 0.20 0.15 91 1014.5
20260508052018 8 158 1.6 4.8 0.05 0.18 0.13 91 1014.6
20260508051018 8 158 1.6 6.4 0.08 0.15 0.10 91 1014.8
20260508050018 8 0.0 1.6 0.08 0.13 0.08 90 1015.0
20260508045020 8 0.0 1.6 0.08 0.13 0.08 90 1015.2
20260508044020 8 293 1.6 4.8 0.10 0.13 0.08 89 1015.3
20260508043018 8 270 3.2 6.4 0.13 0.13 0.08 88 1015.3
20260508042020 8 270 4.8 12.9 0.13 0.13 0.08 88 1015.3
20260508041040 8 270 3.2 6.4 0.08 0.08 0.03 87 1015.2
20260508040039 8 270 1.6 3.2 0.05 0.05 0.05 86 1015.0
20260508035038 8 293 1.6 3.2 0.05 0.05 0.05 83 1014.6
20260508034018 8 158 4.8 30.6 0.03 0.03 0.03 82 1014.8
20260508033018 9 0.0 1.6 0.00 0.00 0.00 80 1014.4
20260508032018 8 158 1.6 3.2 0.00 0.00 0.00 81 1014.3
20260508031020 8 158 3.2 8.0 0.00 0.00 0.00 82 1014.5
20260508030018 8 180 1.6 4.8 0.00 0.00 0.00 84 1014.4
20260508025018 8 0.0 1.6 0.00 0.00 0.00 83 1014.6
20260508024018 8 180 3.2 6.4 0.00 0.00 0.00 82 1014.5
20260508023020 8 180 3.2 6.4 0.00 0.00 0.00 80 1014.4
20260508022018 8 158 3.2 8.0 0.00 0.00 0.00 79 1014.6
20260508021020 8 0.0 1.6 0.00 0.00 0.00 77 1014.5
20260508020020 9 158 3.2 4.8 0.00 0.00 0.00 74 1014.5
20260508015020 10 225 3.2 6.4 0.00 0.00 0.00 72 1014.6
20260508014040 10 225 1.6 3.2 0.00 0.00 0.00 72 1014.7
20260508013018 10 0.0 3.2 0.00 0.00 0.00 69 1014.6
20260508012020 10 0.0 1.6 0.00 0.00 0.00 67 1014.5
20260508011020 10 0.0 4.8 0.00 0.00 0.00 67 1014.3
20260508010020 11 0.0 1.6 0.00 0.00 0.00 65 1014.3
20260508005020 11 0.0 1.6 0.00 0.00 0.00 63 1014.3
20260508004019 11 270 1.6 3.2 0.00 0.00 0.00 63 1014.2
20260508003059 11 248 1.6 8.0 0.00 0.00 0.00 62 1014.3
20260508002018 11 270 4.8 12.9 0.00 0.00 0.00 62 1014.3
20260508001020 11 270 6.4 14.5 0.00 0.00 0.00 58 1014.3
20260508000020 11 270 9.7 20.9 0.00 0.00 0.00 59 1014.5
20260507235020 12 293 6.4 14.5 0.00 0.00 0.00 56 1014.5
20260507234020 12 293 8.0 19.3 0.00 0.00 0.00 54 1014.3
20260507233019 12 270 8.0 19.3 0.00 0.00 0.00 54 1014.3
20260507232019 12 315 9.7 17.7 0.00 0.00 0.00 52 1014.3
20260507231019 12 293 12.9 30.6 0.00 0.00 0.00 50 1014.3
20260507230019 13 293 4.8 16.1 0.00 0.00 0.00 49 1014.1
20260507225019 13 270 8.0 17.7 0.00 0.00 0.00 45 1013.9
20260507224019 13 270 6.4 17.7 0.00 0.00 0.00 46 1013.9
20260507223040 14 293 6.4 17.7 0.00 0.00 0.00 44 1013.9
20260507222020 15 270 11.3 25.7 0.00 0.00 0.00 43 1014.0
20260507221019 15 315 4.8 17.7 0.00 0.00 0.00 44 1014.0
20260507220019 14 270 6.4 14.5 0.00 0.00 0.00 43 1014.0
20260507215018 14 270 11.3 22.5 0.00 0.00 0.00 43 1014.0
20260507214018 14 270 12.9 25.7 0.00 0.00 0.00 42 1013.9
20260507213019 14 315 6.4 12.9 0.00 0.00 0.00 46 1014.0
20260507212018 15 315 9.7 17.7 0.00 0.00 0.00 45 1013.9
20260507211018 13 315 6.4 14.5 0.00 0.00 0.00 47 1014.0
20260507210018 14 315 8.0 19.3 0.00 0.00 0.00 46 1014.2
20260507205018 15 315 6.4 12.9 0.00 0.00 0.00 46 1014.3
20260507204059 15 315 8.0 16.1 0.00 0.00 0.00 44 1014.3
20260507203018 15 315 12.9 25.7 0.00 0.00 0.00 45 1014.4
20260507202018 15 315 9.7 24.1 0.00 0.00 0.00 47 1014.3
20260507201020 15 315 12.9 25.7 0.00 0.00 0.00 44 1014.5
20260507200020 15 293 11.3 24.1 0.00 0.00 0.00 45 1014.5
20260507195018 14 315 14.5 29.0 0.00 0.00 0.00 46 1014.5